Бабадурмаз

Turkmenistan     37˚37′01″N   59˚10′01″E
temp.,
°C
wind,
m/s
gust,
m/s
humid.,
%
clouds,
%
prec.,
mm/h
press.,
hPa
HPBL,
m
30 november, mon
mon3023:00+7˚ese2534100 0.0 1029392
02:00+6˚ese2538100 0.2 1027439
05:00+5˚ese343899 0.2 1025177
08:00+3˚ene114563 0.0 102522
11:00+6˚nne223980 0.0 1026480
14:00+8˚n323691 0.0 1024754
17:00+5˚n455269 0.0 1025422
20:00+3˚n116033 0.0 102633
1 december, tue
tue123:00+1˚nne116235 0.0 102722
02:00nnw01654 0.0 102622
05:00−1˚sse00702 0.0 102522
08:00−1˚ese11740 0.0 102522
11:00+6˚ese22480 0.0 1026288
14:00+9˚e22410 0.0 1023559
17:00+10˚ene22390 0.0 1022543
20:00+4˚e12548 0.0 102422
2 december, wed
wed223:00+4˚se115526 0.0 102425
02:00+3˚se115921 0.0 102422
05:00+3˚ese115616 0.0 102422
08:00+2˚ese126030 0.0 102622
11:00+8˚e223851 0.0 1025246
14:00+11˚e2331100 0.0 1023558
17:00+11˚e123369 0.0 102353
20:00+6˚ene124812 0.0 102422
3 december, thu
thu323:00+4˚se115636 0.0 102422
02:00+6˚e114890 0.0 102422
05:00+6˚e114895 0.0 102422
08:00+6˚wsw1149100 0.0 102523
11:00+6˚nnw1169100 1.1 1026153
14:00+5˚n1183100 1.3 1025147
17:00+5˚nnw2291100 4.0 1025210
20:00+5˚nw2387100 1.9 1026280
4 december, fri
fri423:00+5˚nnw2479100 2.9 1027367
02:00+5˚wnw2465100 0.4 1028376
05:00+5˚nw236199 0.4 1028146
08:00+3˚nw126091 0.0 102989
11:00+5˚n115289 0.0 1031297
14:00+7˚nne224946 0.0 1029617
17:00+7˚ne224648 0.0 1028605
20:00+5˚ene224763 0.0 1029222